[[{"header":{"parameterUnit":"m.s-1","parameterCategory":1,"la1":30.2991,"la2":30.254,"lo1":-89.0895,"lo2":-89.0444,"dy":0.0017,"dx":0.0017,"nx":28,"ny":28,"refTime":"2023-10-21T21:00:00:Z","depth":0,"parameterNumber":2,"parameterNumberName":"U-component_of_WINDS"},"data":[0,0,0,0,0,0,0,0,0,0,0,0,0,0,0,0,0,0,0,0,0,0,0,0,0,0,0,0,0,0,0,0,0,0,0,0,0,0,0,0,0,0,0,0,0,0,0,0,0,0,0,0,0,0,0,0,0,0,1.0008,1.0008,0,1.0028,1.0029,1.0029,1.0014,1.0014,1.0013,1.0013,1.0033,1.0035,1.0036,0,0,0,0,0,0,0,0,0,0,0,0,0,0.9956,0.9957,1.0008,1.0008,1.0008,1.0028,1.0029,1.0029,1.0015,1.0014,1.0013,1.0012,1.0033,1.0034,1.0036,0,0,0,0,0,0,0,0,0,0,0,0,0,0.9978,0.9958,1.0008,1.0004,1.0003,1.0028,1.0029,1.0029,1.0015,1.0014,1.0013,1.0012,1.0033,1.0034,1.0036,1.0066,0,0,1.0041,1.0042,0,0,0,0,0,0,0,0,0.9977,0.998,1.0004,1.0004,1.0004,1.0018,1.0018,1.0041,1.0015,1.001,1.0013,1.0011,1.0029,1.0031,1.0037,1.0067,1.0068,1.0041,1.0043,1.0043,1.0044,0,0,0,0,0,0,0,0.9975,0.9979,1.0016,1.0004,1.0004,1.0001,1.0003,1.0022,1.0025,1.0011,1.001,1.0012,1.0029,1.0035,1.0037,1.0068,1.0041,1.0043,1.0044,1.0045,1.0124,1.0125,0,0,0,0,0,0,0.9974,0.9978,1.0015,1.0017,0.9988,1.0002,1.0005,1.0014,1.0025,1.0025,1.0013,1.0012,1.0033,1.0035,1.0038,1.0073,1.0043,1.0045,1.0046,1.0123,1.0124,1.0125,0,0,0,0,0,0,0.9973,0.9978,1.0014,0.9997,1.0001,1.0004,1.0015,1.0015,1.0022,1.0027,1.0027,1.0019,1.0032,1.0036,1.0059,1.0074,1.0046,1.0047,1.0121,1.0123,1.0125,1.0145,0,0,0,0,0,0,0.9972,0.9977,0.9989,0.9997,1.0002,1.0035,1.0016,1.0016,1.0025,1.0023,1.0032,1.0033,1.0032,1.0057,1.0061,1.0076,1.0049,1.012,1.0122,1.0124,1.0143,1.0147,1.015,0,0,0,0,0,0.997,0.9994,0.9989,0.9994,1.0017,1.0036,1.0039,1.0037,1.0026,1.0037,1.0041,1.0033,1.0072,1.0059,1.0064,1.008,1.0119,1.0122,1.0124,1.0141,1.0146,1.015,0,0,0,0,0,0,0.9986,0.9995,0.999,1.0017,1.0026,1.0034,1.0048,1.0042,1.0054,1.0052,1.0049,1.0052,1.0076,1.008,1.0066,1.0109,1.0094,1.0097,1.0105,1.011,1.0114,1.0112,1.005,0,0,0,0,0,0.9993,1.0009,1.0015,1.0038,1.0043,1.0045,1.0053,1.0051,1.006,1.0064,1.0069,1.0078,1.0092,1.0101,1.0115,1.0144,1.0145,1.0157,1.0161,1.0164,1.0166,1.0182,1.0187,1.0133,1.0133,1.0133,0,0,1.0007,1.0014,1.0024,1.0042,1.0048,1.0064,1.0048,1.0065,1.0077,1.0066,1.0089,1.0093,1.0103,1.0129,1.0141,1.0133,1.0182,1.0167,1.0169,1.017,1.0185,1.019,1.0194,1.0135,1.0134,1.0134,0,0,1.0041,1.0048,1.0068,1.0075,1.0085,1.0086,1.0091,1.01,1.0102,1.0125,1.0117,1.0131,1.0156,1.0163,1.017,1.0207,1.02,1.0212,1.0231,1.0246,1.025,1.0254,1.0267,1.0271,1.0215,1.0215,1.0215,0,1.0057,1.0081,1.0079,1.0097,1.0105,1.0096,1.0116,1.0124,1.0138,1.0144,1.0135,1.0166,1.0172,1.02,1.0209,1.0215,1.022,1.021,1.025,1.0254,1.0257,1.0269,1.0274,1.0216,1.0216,1.0216,1.0216,0,1.01,1.0116,1.0131,1.0145,1.0155,1.0174,1.0175,1.0185,1.0183,1.0185,1.0208,1.0215,1.023,1.0236,1.0234,1.0264,1.0259,1.025,1.0235,1.0264,1.0275,1.0279,1.0218,1.0217,1.0217,1.0217,0,0,1.0144,1.0157,1.0162,1.0168,1.0179,1.0192,1.0211,1.0225,1.0234,1.0244,1.026,1.0281,1.0274,1.0282,1.028,1.0293,1.0322,1.0283,1.0283,1.0289,1.0355,1.036,1.0366,1.0318,1.0319,1.0319,1.0354,0,1.0177,1.021,1.0209,1.0239,1.0254,1.0247,1.0263,1.0271,1.0274,1.0287,1.029,1.0305,1.0294,1.0299,1.0312,1.0315,1.0335,1.0313,1.0332,1.0332,1.0328,1.0372,1.0378,1.041,1.0358,1.0359,1.0359,0,1.0221,1.0232,1.0264,1.0273,1.0279,1.0294,1.0307,1.032,1.033,1.0331,1.034,1.0336,1.0355,1.034,1.0366,1.0352,1.0359,1.0362,1.0363,1.0364,1.0347,1.0373,1.042,1.0425,1.0367,1.0366,1.0365,0,1.0248,1.0272,1.0294,1.03,1.0311,1.0322,1.0327,1.0336,1.0344,1.0356,1.0362,1.0376,1.0383,1.0394,1.0394,1.0383,1.0421,1.0405,1.0422,1.0422,1.0429,1.0428,1.0477,1.0436,1.0436,1.0435,1.0435,0,1.0285,1.0305,1.0307,1.032,1.0342,1.0341,1.0363,1.0367,1.0375,1.0389,1.0384,1.0397,1.0397,1.0411,1.0411,1.0433,1.0436,1.0437,1.0437,1.0437,1.0437,1.0442,1.0439,1.0437,1.0436,1.0436,1.0436,0,1.0319,1.0322,1.0345,1.0354,1.0357,1.0372,1.038,1.0393,1.0395,1.0413,1.0417,1.0421,1.0437,1.0439,1.0457,1.0458,1.0483,1.0481,1.048,1.0479,1.0495,1.0493,1.0548,1.0555,1.0509,1.051,1.051,0,1.0342,1.0357,1.0368,1.0377,1.0383,1.0398,1.0407,1.0407,1.0416,1.0429,1.044,1.0456,1.0468,1.0494,1.0498,1.0512,1.051,1.0528,1.0512,1.0512,1.0509,1.0508,1.0509,1.0531,1.0531,1.0532,1.0532,0,1.0382,1.0383,1.0396,1.041,1.0421,1.0432,1.0442,1.045,1.0451,1.0462,1.0479,1.0488,1.0507,1.0523,1.0537,1.0542,1.0537,1.0537,1.0542,1.0542,1.054,1.054,1.0488,1.0536,1.0535,1.0535,1.0535,1.0535,1.0411,1.0424,1.0433,1.0448,1.0456,1.0466,1.0478,1.0483,1.0496,1.0512,1.0511,1.0529,1.0539,1.0557,1.0564,1.0578,1.0572,1.0578,1.058,1.0581,1.0583,1.0539,1.0581,1.0581,1.058,1.058,1.058,0,1.045,1.0456,1.047,1.0485,1.0497,1.0492,1.0503,1.0513,1.0529,1.0538,1.0551,1.0569,1.0585,1.0591,1.0605,1.0616,1.0614,1.0619,1.0618,1.0619,1.0587,1.0582,1.0621,1.0621,1.0621,1.0621,1.0621,1.0621,1.0472,1.0493,1.0495,1.052,1.0526,1.0544,1.055,1.0559,1.0567,1.0588,1.0601,1.0605,1.0613,1.0629,1.0642,1.0644,1.0649,1.0656,1.0656,1.0626,1.0622,1.0618,1.0612,1.0657,1.0657,1.0687,1.0687,1.0687]},{"header":{"parameterUnit":"m.s-1","parameterCategory":1,"la1":30.2991,"la2":30.254,"lo1":-89.0895,"lo2":-89.0444,"dy":0.0017,"dx":0.0017,"nx":28,"ny":28,"refTime":"2023-10-21T21:00:00:Z","depth":0,"parameterNumber":3,"parameterNumberName":"V-component_of_WINDS"},"data":[0,0,0,0,0,0,0,0,0,0,0,0,0,0,0,0,0,0,0,0,0,0,0,0,0,0,0,0,0,0,0,0,0,0,0,0,0,0,0,0,0,0,0,0,0,0,0,0,0,0,0,0,0,0,0,0,0,0,2.0879,2.0879,0,2.0878,2.0878,2.0878,2.0839,2.0838,2.0837,2.0836,2.0834,2.0835,2.0836,0,0,0,0,0,0,0,0,0,0,0,0,0,2.0846,2.0847,2.0879,2.0879,2.0879,2.0878,2.0878,2.0878,2.0839,2.0838,2.0836,2.0835,2.0833,2.0835,2.0836,0,0,0,0,0,0,0,0,0,0,0,0,0,2.0854,2.0847,2.0879,2.0859,2.0858,2.0878,2.0878,2.0878,2.0839,2.0838,2.0836,2.0835,2.0833,2.0834,2.0836,2.0875,0,0,2.084,2.084,0,0,0,0,0,0,0,0,2.0854,2.0856,2.0862,2.0861,2.0859,2.0857,2.0866,2.0877,2.084,2.0846,2.0836,2.0834,2.0843,2.0843,2.0846,2.0875,2.0874,2.084,2.0841,2.0841,2.0842,0,0,0,0,0,0,0,2.0853,2.0855,2.0879,2.0862,2.086,2.085,2.085,2.0868,2.0853,2.0845,2.0843,2.0843,2.0841,2.0845,2.0846,2.0874,2.084,2.0841,2.0842,2.0842,2.0935,2.0937,0,0,0,0,0,0,2.0856,2.0855,2.0879,2.0879,2.0853,2.0852,2.0852,2.0859,2.0853,2.085,2.0844,2.0841,2.0844,2.0844,2.0846,2.0891,2.0841,2.0843,2.0843,2.0934,2.0936,2.0938,0,0,0,0,0,0,2.0855,2.0858,2.0879,2.0866,2.0868,2.0854,2.0863,2.086,2.0864,2.0852,2.0849,2.0851,2.0842,2.0844,2.0868,2.0891,2.0843,2.0844,2.0932,2.0934,2.0937,2.0982,0,0,0,0,0,0,2.0854,2.0858,2.0873,2.0867,2.0869,2.0901,2.0865,2.0861,2.0866,2.0862,2.0857,2.0855,2.0841,2.0866,2.0869,2.0892,2.0846,2.093,2.0933,2.0936,2.0979,2.0986,2.0993,0,0,0,0,0,2.0853,2.0885,2.0874,2.0877,2.0887,2.0903,2.0904,2.0888,2.0868,2.0883,2.0875,2.0855,2.0888,2.0869,2.0872,2.0895,2.0928,2.0932,2.0936,2.0976,2.0985,2.0992,0,0,0,0,0,0,2.0894,2.0884,2.0871,2.0902,2.0904,2.0896,2.0914,2.0898,2.0904,2.09,2.0879,2.0879,2.0906,2.0903,2.0882,2.0933,2.0904,2.0909,2.0934,2.0942,2.0949,2.0949,2.0847,0,0,0,0,0,2.0906,2.092,2.0911,2.0939,2.0941,2.0927,2.0934,2.0921,2.0922,2.0922,2.0916,2.0917,2.0927,2.0935,2.0944,2.0978,2.0977,2.0996,2.1003,2.1008,2.1012,2.1031,2.1039,2.095,2.095,2.095,0,0,2.0932,2.0929,2.0939,2.0947,2.0947,2.0962,2.0928,2.0945,2.0955,2.0924,2.0947,2.0943,2.0943,2.0972,2.0985,2.0971,2.1037,2.1013,2.1018,2.1019,2.1036,2.1044,2.1052,2.0952,2.0952,2.0951,0,0,2.0987,2.0986,2.101,2.101,2.101,2.1002,2.1007,2.1002,2.0999,2.1021,2.0999,2.1011,2.1029,2.103,2.1033,2.109,2.1071,2.1093,2.1129,2.1147,2.1154,2.116,2.1181,2.1188,2.1097,2.1098,2.1098,0,2.1019,2.1041,2.1024,2.1042,2.1047,2.102,2.1044,2.1046,2.1049,2.1052,2.1036,2.1059,2.1057,2.1087,2.1101,2.1104,2.111,2.1093,2.1155,2.1161,2.1166,2.1185,2.1193,2.11,2.11,2.11,2.1099,0,2.108,2.1096,2.1115,2.1119,2.1126,2.1147,2.1134,2.1143,2.113,2.1123,2.1147,2.1143,2.1151,2.1158,2.1145,2.1186,2.1177,2.1158,2.1129,2.1178,2.1195,2.1203,2.1104,2.1103,2.1102,2.1102,0,0,2.1159,2.1155,2.1163,2.1165,2.1164,2.1175,2.1195,2.1204,2.1212,2.1215,2.1232,2.1249,2.1231,2.1235,2.1222,2.1238,2.1284,2.1217,2.1217,2.123,2.1329,2.1344,2.1352,2.1272,2.1273,2.1274,2.1329,0,2.1212,2.1247,2.1233,2.1269,2.1283,2.1259,2.1277,2.1278,2.1272,2.1283,2.1276,2.1289,2.1265,2.1267,2.1282,2.1275,2.1304,2.1271,2.1287,2.1288,2.1288,2.1362,2.1377,2.1429,2.1336,2.1337,2.1338,0,2.1279,2.1286,2.1324,2.1321,2.1326,2.1343,2.135,2.1361,2.1362,2.1356,2.1361,2.1345,2.1365,2.1336,2.1363,2.1342,2.1347,2.1345,2.1347,2.1347,2.1316,2.1364,2.1445,2.1453,2.1349,2.1348,2.1347,0,2.1333,2.1352,2.1377,2.138,2.1377,2.1389,2.1388,2.1388,2.1395,2.1401,2.1405,2.1413,2.1418,2.1425,2.1412,2.1392,2.144,2.1411,2.1436,2.1437,2.1447,2.1447,2.153,2.1451,2.1451,2.1451,2.1451,0,2.1394,2.1418,2.1402,2.1417,2.1443,2.1427,2.1454,2.145,2.1451,2.1465,2.1444,2.1458,2.144,2.1452,2.1442,2.1466,2.1468,2.1464,2.1461,2.1466,2.1467,2.1469,2.1465,2.1453,2.1453,2.1452,2.1452,0,2.1458,2.1449,2.1474,2.1471,2.147,2.149,2.1486,2.15,2.1493,2.1512,2.1515,2.1505,2.1518,2.1506,2.1518,2.1511,2.1544,2.1535,2.1543,2.1541,2.1568,2.1565,2.1655,2.1666,2.1581,2.1582,2.1582,0,2.1498,2.1516,2.1514,2.1523,2.1524,2.1538,2.1545,2.153,2.1538,2.1541,2.1555,2.1566,2.1575,2.1597,2.159,2.16,2.1592,2.1623,2.1593,2.1598,2.1592,2.1592,2.1593,2.1629,2.163,2.163,2.1631,0,2.1569,2.1563,2.1574,2.1584,2.1593,2.16,2.1605,2.1613,2.1597,2.1607,2.1621,2.1628,2.1641,2.1653,2.1661,2.166,2.1643,2.1641,2.1647,2.1652,2.1656,2.1655,2.156,2.1638,2.1638,2.1637,2.1637,2.1637,2.1622,2.1637,2.1639,2.1652,2.1655,2.166,2.1673,2.1669,2.168,2.1691,2.1681,2.1698,2.1699,2.1708,2.1709,2.1722,2.1709,2.1718,2.1721,2.1723,2.1727,2.1655,2.1723,2.1723,2.1723,2.1722,2.1722,0,2.1692,2.1692,2.1704,2.1713,2.1723,2.1708,2.1713,2.1722,2.1738,2.1741,2.175,2.1766,2.1778,2.1773,2.1783,2.1794,2.1787,2.1797,2.1796,2.1797,2.1738,2.1731,2.1803,2.1803,2.1803,2.1803,2.1803,2.1803,2.1729,2.1755,2.175,2.1776,2.1776,2.1793,2.1798,2.1803,2.1805,2.1824,2.1834,2.1831,2.1831,2.1841,2.1851,2.1849,2.1854,2.1868,2.1863,2.1808,2.18,2.1793,2.1787,2.1869,2.1869,2.192,2.1921,2.1921]}]]